Flag for Canada Weather past 2 weeks in Prince George, British Columbia, Canada

Now
37 °F

Overcast.


Feels Like: 31 °F
Forecast: 35 / 52 °F
Wind: 8 mph from North

Location: Prince George

Current Time: Apr 25, 2015 at 9:03:20 AM

Latest Report: Apr 25, 2015 at 8:00 AM


Visibility: 9 mi

Pressure: 29.96 "Hg

Humidity: 93%

Dew point: 36 °F

Location of Prince GeorgeLocation

Historic Weather in Prince George — Graph

°F

Prince George temperature yesterday

Maximum temperature yesterday: 43 °F (at 11:00 AM)
Minimum temperature yesterday: 37 °F (at 2:00 AM)
Average temperature yesterday: 40 °F

Past Weeks' High & Low Weather Summary

 TemperatureHumidityPressure
High68 °F (Apr 20, 5:00 PM)100% (Apr 23, 12:00 AM)30.51 "Hg (Apr 23, 12:00 AM)
Low23 °F (Apr 13, 6:00 AM)21% (Apr 14, 6:00 PM)29.40 "Hg (Apr 10, 11:00 PM)
Average42 °F64%29.95 "Hg
* Reported Apr 10 7:00 AM — Apr 25 7:00 AM, Prince George, Weather by CustomWeather, © 2015

Note: Actual official high and low records may vary slightly from our data, if they occured in-between our weather recording intervals... More about our weather records

Advertising

Prince George weather history for previous 24 hours

 ConditionsComfort  
Time TempWeatherWind HumidityBarometerVisibility
7:00 AM
Sat, Apr 25
36 °FOvercast.9 mph93%29.94 "Hg9 mi
6:00 AM34 °FMostly cloudy.6 mph100%29.93 "Hg9 mi
5:00 AM34 °FOvercast.8 mph100%29.93 "Hg9 mi
4:58 AM34 °FOvercast.8 mph100%29.93 "Hg9 mi
4:00 AM34 °FFog.8 mph100%29.91 "Hg4 mi
3:53 AM34 °FFog.7 mph100%29.91 "Hg5 mi
3:00 AM36 °FLow clouds.6 mph100%29.90 "Hg9 mi
2:00 AM36 °FLow clouds.6 mph100%29.89 "Hg9 mi
1:03 AM36 °FMostly cloudy.7 mph100%29.87 "Hg9 mi
12:00 AM36 °FLight rain. Mostly cloudy.5 mph100%29.86 "Hg9 mi
11:00 PM
Fri, Apr 24
37 °FLight rain. Mostly cloudy.6 mph93%29.85 "Hg9 mi
10:00 PM39 °FOvercast.9 mph93%29.83 "Hg9 mi
9:00 PM39 °FLight rain. Mostly cloudy.7 mph93%29.82 "Hg9 mi
8:00 PM39 °FLight rain. Cloudy.5 mph93%29.80 "Hg9 mi
7:00 PM41 °FLight rain. Mostly cloudy.8 mph93%29.78 "Hg9 mi
6:53 PM41 °FLight rain. Cloudy.7 mph93%29.78 "Hg9 mi
6:00 PM41 °FLight rain. Cloudy.5 mph87%29.77 "Hg9 mi
5:58 PM41 °FLight rain. Mostly cloudy.6 mph87%29.77 "Hg9 mi
4:04 PM41 °FLight rain. Mostly cloudy.No wind81%29.75 "Hg9 mi
3:00 PM39 °FLight rain. Overcast.7 mph93%29.75 "Hg9 mi
2:00 PM39 °FLight rain. More clouds than sun.9 mph93%29.74 "Hg7 mi
1:58 PM39 °FLight rain. Fog.9 mph93%29.73 "Hg6 mi
1:00 PM43 °FOvercast.5 mph81%29.70 "Hg9 mi
12:00 PM43 °FMostly cloudy.2 mph76%29.70 "Hg9 mi
11:00 AM43 °FMore clouds than sun.No wind81%29.69 "Hg9 mi
10:00 AM41 °FMostly cloudy.7 mph87%29.67 "Hg9 mi
9:00 AM41 °FPartly sunny.8 mph87%29.67 "Hg9 mi
Weather by CustomWeather, © 2015

See weather overviewHow to use our weather pages